Regional Weather Roundup
Issued by NWS

Home | Current Version | Previous Version | Text Only | Print | Product List | Glossary Off
Versions: 1 2 3 4 5 6 7 8 9 10 11 12 13 14 15 16 17 18 19 20 21 22 23 24 25 26 27 28 29 30 31 32 33 34 35 36 37 38 39 40 41 42 43 44 45 46 47 48 49 50

000
ASUS46 KLOX 241612
RWRCA

SOUTHERN CALIFORNIA WEATHER ROUNDUP
NATIONAL WEATHER SERVICE OXNARD CALIFORNIA
900 AM PDT THU APR 24 2014

NOTE: "FAIR" INDICATES FEW OR NO CLOUDS BELOW 12,000 FEET WITH NO
SIGNIFICANT WEATHER AND/OR OBSTRUCTIONS TO VISIBILITY.

  -  STATIONS PRECEEDED BY AN ASTERISK (*) ARE NOT NWS OR FAA
     STATIONS AND ARE NOT SUBJECT TO NWS AND FAA QUALITY CONTROL.

CAZ041-042-087-241700-
LA AND ORANGE COUNTY COASTAL AREAS


CITY           SKY/WX    TMP DP  RH WIND       PRES   REMARKS
L.A. DOWNTOWN  SUNNY     66  50  56 CALM      29.99R
L.A. AIRPORT   MOSUNNY   66  52  60 CALM      30.00R
LONG BEACH     SUNNY     64  52  64 CALM      29.99S

CITY           SKY/WX    TMP DP  RH WIND       PRES   REMARKS
AVALON           N/A     63 N/A N/A MISG        N/A
FULLERTON      SUNNY     65  52  62 CALM      29.98S
*GETTY CENTER    N/A     63  45  51 E3          N/A
HAWTHORNE      SUNNY     64  49  57 S5        29.99S
*LEO CARRILLO    N/A     70  47  44 E2          N/A
*LOS ALAMITOS  PTSUNNY   64  55  72 VRB2      29.99S
*REDONDO BEACH   N/A     65  54  69 CALM      29.98R
SANTA ANA      MOSUNNY   65  52  62 CALM      29.99R
STA MONICA APT SUNNY     67  49  52 SE5       30.00R
TORRANCE       SUNNY     68  55  64 VRB6      30.00R
*UCLA            N/A     64  43  45 E1        29.97S

$$

CAZ547-548-048-241700-
LA COUNTY VALLEYS AND INLAND EMPIRE


CITY           SKY/WX    TMP DP  RH WIND       PRES   REMARKS
BURBANK        SUNNY     63  41  44 CALM      29.99R
VAN NUYS       MOSUNNY   66  38  35 SE3       29.99R

CITY           SKY/WX    TMP DP  RH WIND       PRES   REMARKS
CORONA AIRPORT SUNNY     62  46  55 CALM        N/A
*CHATSWORTH      N/A     64  39  40 CALM      29.97S
CHINO          MOSUNNY   64  45  49 CALM      30.00R
*CLAREMONT       N/A     70  37  30 NW2         N/A
MARCH AFB      SUNNY     62  45  54 VRB1      29.99S
*NORTHRIDGE      N/A     64  34  32 S1          N/A
ONTARIO        MOSUNNY   64  40  41 CALM      29.98S
*PASADENA        N/A     68  46  45 CALM        N/A
POMONA         SUNNY     63  43  48 CALM      30.01
RIVERSIDE      SUNNY     62  41  46 VRB3      29.99S
SAN BERNARDINO MOSUNNY   61  37  41 CALM      29.99R
*SAN GABRIEL     N/A     67  42  39 CALM      29.96S
*SAN RAFAEL HI   N/A     69  47  44 SW5         N/A
*SAUGUS          N/A     66  28  24 SE3         N/A
*WHITEMAN AP   SUNNY     63  39  42 CALM      30.02R
*WHITTIER HILL   N/A     67  49  51 SW3         N/A
*WOODLAND HILL   N/A     64  37  36 NE2         N/A

$$

CAZ054-055-241700-
LA AND SAN BERNARDINO COUNTY MOUNTAINS


CITY           SKY/WX    TMP DP  RH WIND       PRES   REMARKS
*ACTON           N/A     64  26  24 NE7         N/A
*BIG BEAR AIRP SUNNY     50  21  32 W5        30.14R
*BIG PINES       N/A     54  20  26 SW2         N/A
MT WILSON NWS    N/A     61  23  23 MISG        N/A
SANDBERG       SUNNY     53  30  41 N15       30.08S
*WARM SPRINGS    N/A     56  31  38 W2          N/A

$$

CAZ028-029-059-060-099-241700-
ANTELOPE VALLEY AND SURROUNDING AREAS


CITY           SKY/WX    TMP DP  RH WIND       PRES   REMARKS
LANCASTER      SUNNY     62  30  29 NW8       30.04S
PALMDALE       SUNNY     59  27  29 NE3       30.04S
*POPPY PARK      N/A     64  31  29 W13G25      N/A

CITY           SKY/WX    TMP DP  RH WIND       PRES   REMARKS
29 PALMS       MOSUNNY   64  24  21 NW9       30.06S
BARSTOW/DAGGET SUNNY     62  26  25 W16       30.01F
BISHOP         SUNNY     59  19  21 VRB3      30.06R
CHINA LAKE     SUNNY     60  30  32 N5        30.01R
EDWARDS AFB    MOSUNNY   56  29  34 NE3       30.03R
MOJAVE         FAIR      59  28  31 E6        30.04R
NEEDLES        SUNNY     72  11   9 SE5       29.95R
VICTORVILLE    SUNNY     55  27  33 W5        30.04R

$$

CAZ039-040-241700-
VENTURA AND SANTA BARBARA COUNTY COAST


CITY           SKY/WX    TMP DP  RH WIND       PRES   REMARKS
CAMARILLO      SUNNY     63  43  48 CALM      29.99S
NWS OXNARD       N/A     65  41  41 SE2       29.99R
OXNARD AIRPORT SUNNY     64  39  39 CALM      29.99R
*POINT MUGU    MOSUNNY   66  50  56 CALM      29.99R
SBA APT/GOLETA SUNNY     63  50  62 S5        29.99R
*SANTA BARBARA   N/A     62  52  70 CALM      30.07R
*VENTURA         N/A     62  39  42 CALM      30.05R

$$

CAZ044-045-241700-
VENTURA COUNTY VALLEYS


CITY           SKY/WX    TMP DP  RH WIND       PRES   REMARKS
*SIMI VALLEY     N/A     66  38  34 SE2       29.95R
*OJAI            N/A     69  38  31 E2        29.94S
*FILLMORE        N/A     68  42  38 CALM      29.89S

$$

CAZ053-241700-
VENTURA COUNTY MOUNTAINS


CITY           SKY/WX    TMP DP  RH WIND       PRES   REMARKS
*LOCKWOOD VLY    N/A     50  28  43 MISG        N/A
*ROSE VALLEY     N/A     59  36  41 MISG        N/A

$$

CAZ034-035-036-241700-
CENTRAL COAST AND SANTA YNEZ VALLEY


CITY           SKY/WX    TMP DP  RH WIND       PRES   REMARKS
SAN LUIS OBISP SUNNY     65  43  44 N12       30.07R
SANTA MARIA    SUNNY     70  39  32 N14G20    30.04R

CITY           SKY/WX    TMP DP  RH WIND       PRES   REMARKS
*CAL POLY SLO    N/A     59  46  63 E8          N/A
*CAMBRIA         N/A     54  49  85 E7        29.98R
*LOMPOC        SUNNY     61  45  55 CALM      30.04S
*PISMO BEACH     N/A     64  45  49 NW3       30.06S
*SANTA YNEZ    FAIR      52  39  62 CALM      30.03R

$$

CAZ037-038-051-241700-
SAN LUIS OBISPO COUNTY INTERIOR AND CUYAMA VALLEY


CITY           SKY/WX    TMP DP  RH WIND       PRES   REMARKS
*CUYAMA          N/A     56  36  47 CALM      29.96F
PASO ROBLES    SUNNY     55  41  59 NW6       30.10R

$$

CAZ032-033-061-241700-
SOUTHERN DESERTS


CITY           SKY/WX    TMP DP  RH WIND       PRES   REMARKS
BLYTHE         SUNNY     73  17  12 CALM      29.93R
IMPERIAL       SUNNY     73  49  42 NW6       29.90S
PALM SPRINGS   SUNNY     76  29  17 CALM      29.94S
THERMAL        MOSUNNY   79  35  20 N8        29.89S HAZE

$$

ELSEWHERE ACROSS THE WESTERN UNITED STATES AND MEXICO


CITY           SKY/WX    TMP DP  RH WIND       PRES   REMARKS
DENVER, CO     MOSUNNY   46  22  38 S9        30.02F
GRAND CANYON,  SUNNY     54  11  18 S8        30.16R
HONOLULU, HI   PTCLDY    73  63  68 E10G18    30.08R
KAHULUI, MAUI  PTCLDY    72  66  83 NE17      30.07R
LAKE TAHOE, CA MOSUNNY   50  28  42 S14       30.09S
LAS VEGAS, NV  MOSUNNY   68  13  12 CALM      29.96R
MAMMOTH LAKES, FAIR      46  21  36 SE5       30.14R
MEXICO CITY, M PTSUNNY   70  45  40 E3        30.36R
PHOENIX, AZ    MOSUNNY   73  20  13 SE9       29.94S
PORTLAND, OR   PTSUNNY   54  49  83 S9        29.82R
RENO, NV       PTSUNNY   56  30  37 NW5       30.04S
SALT LAKE CITY PTSUNNY   50  24  36 SE16      30.06S
SAN DIEGO, CA  MOSUNNY   63  53  70 VRB3      30.01R
SAN FRANCISCO, PTSUNNY   58  52  80 W9        30.13R
SAN JOSE, CA   PTSUNNY   57  49  74 CALM      30.13R
SEATTLE, WA    NOT AVBL
TIJUANA, MEX     N/A    N/A N/A N/A MISG        N/A

$$

STATION/POSITION TIME  TEMP    WIND        PRES    VSBY  WAVE
                       AIR SEA DIR/SP/G                  HT/PER
                 (UTC) (F)     (DEG/KT/KT) (MB)    (MI)  (FT/S)
POINT ARGUELLO B NOT AVBL
WEST SANTA BARBA 1600   54 54  330/ 21/ 25 1015.5R         9/13
POINT CONCEPTION NOT AVBL
EAST SANTA BARBA NOT AVBL
SANTA MONICA BAY 1600   60 60   70/  6/  6 1015.3R         4/12



USA.gov is the U.S. government's official web portal to all federal, state and local government web resources and services.